星链-2439 (STARLINK-2439 )

导读 | 豆包AI

STARLINK-2439是美国太空探索技术公司星链星座中的一颗卫星,于2021年4月7日发射入轨。星链项目旨在构建全球卫星互联网星座,该卫星承担为全球偏远地区、海洋空域等区域提供低延迟宽带互联网接入服务的任务,属于星链低轨卫星组网的组成部分。

Basic Information
目录编号:
48104
目录名称:
STARLINK-2439
国际标识:
2021-027N
轨道中心:
EARTH
卫星名称:
星链-2439
卫星全名:
星链-2439 (STARLINK-2439 )
卫星状态:
在轨 (已飞行1849 天)
发射日期:
2021-04-07 UTC
国别 :
美国 (US)
星等 :
--
Orbit Information
数据来源 国际轨道数据 AOE轨道数据
星历时间 2026-04-30T03:57:36+0800
18小时前
查看轨道信息
2026-04-30T08:00:00+0800
14小时前
查看轨道信息
半长轴 6848.867km 6848.893km
偏心率 0.0001224 0.000112
轨道倾角 53.160° 53.161°
近地点辐角 82.537° 66.480°
升交点赤经 275.035° 274.252°
平近点角 277.577° 142.345°
近地点 469.891km 469.988km
远地点 471.569km 471.524km
周期 94.013分钟 94.014分钟
每日圈数 15.317035 15.316949
Detailed Information
固有亮度:
5
最大亮度:
2.5
卫星平台:
Starlink V1.0
覆盖范围:
全球
运营商:
太空探索技术公司
运营商所在国:
美国
制造商(研发单位):
太空探索技术公司
制造商所在国:
美国
使用方式:
暂无
Satellite Introduction
星链(Starlink)计划是由太空探索技术公司(SpaceX)提出的一个巨型低轨卫星互联网星座项目,计划在2019年至2024年间在太空搭建由约1.2万颗卫星组成的“星链”网络,其中1584颗将部署在地球上空550千米处的近地轨道,并从2020年开始工作。该卫星仍在工作。
2D Orbit Map
3D Orbit Map
Orbit Altitude Analysis Chart
Orbit Inclination Analysis Chart
Orbit Comprehensive Analysis Chart
View Comprehensive Chart